Time,TemperatureF,DewpointF,PressureIn,WindDirection,WindDirectionDegrees,WindSpeedMPH,WindSpeedGustMPH,Humidity,HourlyPrecipIn,Conditions,Clouds,dailyrainin,SoftwareType,DateUTC
2013-09-05 00:00:00,74.3,63.5,30.07,ENE,68,2.0,-999.0,69,0.00,,,0.00,Wunderground v.1.15,2013-09-05 10:00:00,
2013-09-05 00:05:00,74.3,63.5,30.07,ENE,68,2.0,-999.0,69,0.00,,,0.00,Wunderground v.1.15,2013-09-05 10:05:00,
2013-09-05 00:10:00,74.3,63.5,30.07,ENE,68,2.0,-999.0,69,0.00,,,0.00,Wunderground v.1.15,2013-09-05 10:10:00,
2013-09-05 00:15:00,74.3,63.5,30.07,ENE,68,2.0,-999.0,69,0.00,,,0.00,Wunderground v.1.15,2013-09-05 10:15:00,
2013-09-05 00:20:00,74.3,63.5,30.07,ENE,68,2.0,-999.0,69,0.00,,,0.00,Wunderground v.1.15,2013-09-05 10:20:00,
2013-09-05 00:25:00,74.3,63.5,30.07,ENE,68,2.0,-999.0,69,0.00,,,0.00,Wunderground v.1.15,2013-09-05 10:25:00,
2013-09-05 00:30:00,74.3,63.5,30.07,ENE,68,2.0,-999.0,69,0.00,,,0.00,Wunderground v.1.15,2013-09-05 10:30:00,
2013-09-05 00:35:00,74.3,63.5,30.07,ENE,68,2.0,-999.0,69,0.00,,,0.00,Wunderground v.1.15,2013-09-05 10:35:00,
2013-09-05 00:40:00,74.3,63.5,30.07,ENE,68,2.0,-999.0,69,0.00,,,0.00,Wunderground v.1.15,2013-09-05 10:40:00,
2013-09-05 00:45:00,74.1,62.0,30.07,East,90,2.0,-999.0,66,0.00,,,0.00,Wunderground v.1.15,2013-09-05 10:45:00,
2013-09-05 00:50:00,74.1,62.0,30.07,East,90,2.0,-999.0,66,0.00,,,0.00,Wunderground v.1.15,2013-09-05 10:50:00,
2013-09-05 00:55:00,74.1,62.0,30.07,East,90,2.0,-999.0,66,0.00,,,0.00,Wunderground v.1.15,2013-09-05 10:55:00,
2013-09-05 01:00:00,74.1,62.0,30.07,East,90,2.0,-999.0,66,0.00,,,0.00,Wunderground v.1.15,2013-09-05 11:00:00,
2013-09-05 01:05:00,74.1,62.0,30.07,East,90,2.0,-999.0,66,0.00,,,0.00,Wunderground v.1.15,2013-09-05 11:05:00,
2013-09-05 01:10:00,74.1,62.0,30.07,East,90,2.0,-999.0,66,0.00,,,0.00,Wunderground v.1.15,2013-09-05 11:10:00,
2013-09-05 01:15:00,73.9,63.9,30.07,East,90,1.0,-999.0,71,0.00,,,0.00,Wunderground v.1.15,2013-09-05 11:15:00,
2013-09-05 01:20:00,73.9,63.9,30.07,East,90,1.0,-999.0,71,0.00,,,0.00,Wunderground v.1.15,2013-09-05 11:20:00,
2013-09-05 01:25:00,73.9,63.9,30.07,East,90,1.0,-999.0,71,0.00,,,0.00,Wunderground v.1.15,2013-09-05 11:25:00,
2013-09-05 01:30:00,73.9,63.9,30.07,East,90,1.0,-999.0,71,0.00,,,0.00,Wunderground v.1.15,2013-09-05 11:30:00,
2013-09-05 01:35:00,73.9,63.9,30.07,East,90,1.0,-999.0,71,0.00,,,0.00,Wunderground v.1.15,2013-09-05 11:35:00,
2013-09-05 01:40:00,73.9,63.9,30.07,East,90,1.0,-999.0,71,0.00,,,0.00,Wunderground v.1.15,2013-09-05 11:40:00,
2013-09-05 01:45:00,73.3,62.1,30.07,East,90,1.0,-999.0,68,0.00,,,0.00,Wunderground v.1.15,2013-09-05 11:45:00,
2013-09-05 01:50:00,73.3,62.1,30.07,East,90,1.0,-999.0,68,0.00,,,0.00,Wunderground v.1.15,2013-09-05 11:50:00,
2013-09-05 01:55:00,73.3,62.1,30.07,East,90,1.0,-999.0,68,0.00,,,0.00,Wunderground v.1.15,2013-09-05 11:55:00,
2013-09-05 02:00:00,73.3,62.1,30.07,East,90,1.0,-999.0,68,0.00,,,0.00,Wunderground v.1.15,2013-09-05 12:00:00,
2013-09-05 02:05:00,73.3,62.1,30.07,East,90,1.0,-999.0,68,0.00,,,0.00,Wunderground v.1.15,2013-09-05 12:05:00,
2013-09-05 02:10:00,73.3,62.1,30.07,East,90,1.0,-999.0,68,0.00,,,0.00,Wunderground v.1.15,2013-09-05 12:10:00,
2013-09-05 02:15:00,71.5,60.8,30.06,East,90,1.0,-999.0,69,0.00,,,0.00,Wunderground v.1.15,2013-09-05 12:15:00,
2013-09-05 02:20:00,71.5,60.8,30.06,East,90,1.0,-999.0,69,0.00,,,0.00,Wunderground v.1.15,2013-09-05 12:20:00,
2013-09-05 02:25:00,71.5,60.8,30.06,East,90,1.0,-999.0,69,0.00,,,0.00,Wunderground v.1.15,2013-09-05 12:25:00,
2013-09-05 02:30:00,71.5,60.8,30.06,East,90,1.0,-999.0,69,0.00,,,0.00,Wunderground v.1.15,2013-09-05 12:30:00,
2013-09-05 02:35:00,71.5,60.8,30.06,East,90,1.0,-999.0,69,0.00,,,0.00,Wunderground v.1.15,2013-09-05 12:35:00,
2013-09-05 02:40:00,71.5,60.8,30.06,East,90,1.0,-999.0,69,0.00,,,0.00,Wunderground v.1.15,2013-09-05 12:40:00,
2013-09-05 02:45:00,71.6,60.9,30.06,East,90,1.0,-999.0,69,0.00,,,0.00,Wunderground v.1.15,2013-09-05 12:45:00,
2013-09-05 02:50:00,71.6,60.9,30.06,East,90,1.0,-999.0,69,0.00,,,0.00,Wunderground v.1.15,2013-09-05 12:50:00,
2013-09-05 02:55:00,71.6,60.9,30.06,East,90,1.0,-999.0,69,0.00,,,0.00,Wunderground v.1.15,2013-09-05 12:55:00,
2013-09-05 03:00:00,71.6,60.9,30.06,East,90,1.0,-999.0,69,0.00,,,0.00,Wunderground v.1.15,2013-09-05 13:00:00,
2013-09-05 03:05:00,71.6,60.9,30.06,East,90,1.0,-999.0,69,0.00,,,0.00,Wunderground v.1.15,2013-09-05 13:05:00,
2013-09-05 03:10:00,71.6,60.9,30.06,East,90,1.0,-999.0,69,0.00,,,0.00,Wunderground v.1.15,2013-09-05 13:10:00,
2013-09-05 03:15:00,71.5,62.4,30.06,East,90,1.0,-999.0,73,0.00,,,0.00,Wunderground v.1.15,2013-09-05 13:15:00,
2013-09-05 03:20:00,71.5,62.4,30.06,East,90,1.0,-999.0,73,0.00,,,0.00,Wunderground v.1.15,2013-09-05 13:20:00,
2013-09-05 03:25:00,71.5,62.4,30.06,East,90,1.0,-999.0,73,0.00,,,0.00,Wunderground v.1.15,2013-09-05 13:25:00,
2013-09-05 03:30:00,71.5,62.4,30.06,East,90,1.0,-999.0,73,0.00,,,0.00,Wunderground v.1.15,2013-09-05 13:30:00,
2013-09-05 03:35:00,71.5,62.4,30.06,East,90,1.0,-999.0,73,0.00,,,0.00,Wunderground v.1.15,2013-09-05 13:35:00,
2013-09-05 03:40:00,71.5,62.4,30.06,East,90,1.0,-999.0,73,0.00,,,0.00,Wunderground v.1.15,2013-09-05 13:40:00,
2013-09-05 03:45:00,71.8,63.4,30.06,East,90,0.0,-999.0,75,0.00,,,0.00,Wunderground v.1.15,2013-09-05 13:45:00,
2013-09-05 03:50:00,71.8,63.4,30.06,East,90,0.0,-999.0,75,0.00,,,0.00,Wunderground v.1.15,2013-09-05 13:50:00,
2013-09-05 03:55:00,71.8,63.4,30.06,East,90,0.0,-999.0,75,0.00,,,0.00,Wunderground v.1.15,2013-09-05 13:55:00,
2013-09-05 04:00:00,71.8,63.4,30.06,East,90,0.0,-999.0,75,0.00,,,0.00,Wunderground v.1.15,2013-09-05 14:00:00,
2013-09-05 04:05:00,71.8,63.4,30.06,East,90,0.0,-999.0,75,0.00,,,0.00,Wunderground v.1.15,2013-09-05 14:05:00,
2013-09-05 04:10:00,71.8,63.4,30.06,East,90,0.0,-999.0,75,0.00,,,0.00,Wunderground v.1.15,2013-09-05 14:10:00,
2013-09-05 04:15:00,71.6,62.9,30.06,East,90,1.0,-999.0,74,0.00,,,0.00,Wunderground v.1.15,2013-09-05 14:15:00,
2013-09-05 04:20:00,71.6,62.9,30.06,East,90,1.0,-999.0,74,0.00,,,0.00,Wunderground v.1.15,2013-09-05 14:20:00,
2013-09-05 04:25:00,71.6,62.9,30.06,East,90,1.0,-999.0,74,0.00,,,0.00,Wunderground v.1.15,2013-09-05 14:25:00,
2013-09-05 04:30:00,71.6,62.9,30.06,East,90,1.0,-999.0,74,0.00,,,0.00,Wunderground v.1.15,2013-09-05 14:30:00,
2013-09-05 04:35:00,71.6,62.9,30.06,East,90,1.0,-999.0,74,0.00,,,0.00,Wunderground v.1.15,2013-09-05 14:35:00,
2013-09-05 04:40:00,71.6,62.9,30.06,East,90,1.0,-999.0,74,0.00,,,0.00,Wunderground v.1.15,2013-09-05 14:40:00,
2013-09-05 04:45:00,71.0,63.1,30.06,East,90,1.0,-999.0,76,0.00,,,0.00,Wunderground v.1.15,2013-09-05 14:45:00,
2013-09-05 04:50:00,71.0,63.1,30.06,East,90,1.0,-999.0,76,0.00,,,0.00,Wunderground v.1.15,2013-09-05 14:50:00,
2013-09-05 04:55:00,71.0,63.1,30.06,East,90,1.0,-999.0,76,0.00,,,0.00,Wunderground v.1.15,2013-09-05 14:55:00,
2013-09-05 05:00:00,71.0,63.1,30.06,East,90,1.0,-999.0,76,0.00,,,0.00,Wunderground v.1.15,2013-09-05 15:00:00,
2013-09-05 05:05:00,71.0,63.1,30.06,East,90,1.0,-999.0,76,0.00,,,0.00,Wunderground v.1.15,2013-09-05 15:05:00,
2013-09-05 05:10:00,71.0,63.1,30.06,East,90,1.0,-999.0,76,0.00,,,0.00,Wunderground v.1.15,2013-09-05 15:10:00,
2013-09-05 05:15:00,70.9,62.6,30.07,East,90,1.0,-999.0,75,0.00,,,0.00,Wunderground v.1.15,2013-09-05 15:15:00,
2013-09-05 05:20:00,70.9,62.6,30.07,East,90,1.0,-999.0,75,0.00,,,0.00,Wunderground v.1.15,2013-09-05 15:20:00,
2013-09-05 05:25:00,70.9,62.6,30.07,East,90,1.0,-999.0,75,0.00,,,0.00,Wunderground v.1.15,2013-09-05 15:25:00,
2013-09-05 05:30:00,70.9,62.6,30.07,East,90,1.0,-999.0,75,0.00,,,0.00,Wunderground v.1.15,2013-09-05 15:30:00,
2013-09-05 05:35:00,70.9,62.6,30.07,East,90,1.0,-999.0,75,0.00,,,0.00,Wunderground v.1.15,2013-09-05 15:35:00,
2013-09-05 05:40:00,70.9,62.6,30.07,East,90,1.0,-999.0,75,0.00,,,0.00,Wunderground v.1.15,2013-09-05 15:40:00,
2013-09-05 05:45:00,70.9,63.0,30.08,East,90,1.0,-999.0,76,0.00,,,0.00,Wunderground v.1.15,2013-09-05 15:45:00,
2013-09-05 05:50:00,70.9,63.0,30.08,East,90,1.0,-999.0,76,0.00,,,0.00,Wunderground v.1.15,2013-09-05 15:50:00,
2013-09-05 05:55:00,70.9,63.0,30.08,East,90,1.0,-999.0,76,0.00,,,0.00,Wunderground v.1.15,2013-09-05 15:55:00,
2013-09-05 06:00:00,70.9,63.0,30.08,East,90,1.0,-999.0,76,0.00,,,0.00,Wunderground v.1.15,2013-09-05 16:00:00,
2013-09-05 06:05:00,70.9,63.0,30.08,East,90,1.0,-999.0,76,0.00,,,0.00,Wunderground v.1.15,2013-09-05 16:05:00,
2013-09-05 06:10:00,70.9,63.0,30.08,East,90,1.0,-999.0,76,0.00,,,0.00,Wunderground v.1.15,2013-09-05 16:10:00,
2013-09-05 06:15:00,70.4,61.7,30.08,East,90,1.0,-999.0,74,0.00,,,0.00,Wunderground v.1.15,2013-09-05 16:15:00,
2013-09-05 06:20:00,70.4,61.7,30.08,East,90,1.0,-999.0,74,0.00,,,0.00,Wunderground v.1.15,2013-09-05 16:20:00,
2013-09-05 06:25:00,70.4,61.7,30.08,East,90,1.0,-999.0,74,0.00,,,0.00,Wunderground v.1.15,2013-09-05 16:25:00,
2013-09-05 06:30:00,70.4,61.7,30.08,East,90,1.0,-999.0,74,0.00,,,0.00,Wunderground v.1.15,2013-09-05 16:30:00,
2013-09-05 06:35:00,70.4,61.7,30.08,East,90,1.0,-999.0,74,0.00,,,0.00,Wunderground v.1.15,2013-09-05 16:35:00,
2013-09-05 06:40:00,70.4,61.7,30.08,East,90,1.0,-999.0,74,0.00,,,0.00,Wunderground v.1.15,2013-09-05 16:40:00,
2013-09-05 06:45:00,70.9,61.4,30.09,East,90,1.0,-999.0,72,0.00,,,0.00,Wunderground v.1.15,2013-09-05 16:45:00,
2013-09-05 06:50:00,70.9,61.4,30.09,East,90,1.0,-999.0,72,0.00,,,0.00,Wunderground v.1.15,2013-09-05 16:50:00,
2013-09-05 06:55:00,70.9,61.4,30.09,East,90,1.0,-999.0,72,0.00,,,0.00,Wunderground v.1.15,2013-09-05 16:55:00,
2013-09-05 07:00:00,70.9,61.4,30.09,East,90,1.0,-999.0,72,0.00,,,0.00,Wunderground v.1.15,2013-09-05 17:00:00,
2013-09-05 07:05:00,70.9,61.4,30.09,East,90,1.0,-999.0,72,0.00,,,0.00,Wunderground v.1.15,2013-09-05 17:05:00,
2013-09-05 07:10:00,70.9,61.4,30.09,East,90,1.0,-999.0,72,0.00,,,0.00,Wunderground v.1.15,2013-09-05 17:10:00,
2013-09-05 07:15:00,71.4,61.5,30.10,East,90,0.0,-999.0,71,0.00,,,0.00,Wunderground v.1.15,2013-09-05 17:15:00,
2013-09-05 07:20:00,71.4,61.5,30.10,East,90,0.0,-999.0,71,0.00,,,0.00,Wunderground v.1.15,2013-09-05 17:20:00,
2013-09-05 07:25:00,71.4,61.5,30.10,East,90,0.0,-999.0,71,0.00,,,0.00,Wunderground v.1.15,2013-09-05 17:25:00,
2013-09-05 07:30:00,71.4,61.5,30.10,East,90,0.0,-999.0,71,0.00,,,0.00,Wunderground v.1.15,2013-09-05 17:30:00,
2013-09-05 07:35:00,71.4,61.5,30.10,East,90,0.0,-999.0,71,0.00,,,0.00,Wunderground v.1.15,2013-09-05 17:35:00,
2013-09-05 07:40:00,71.4,61.5,30.10,East,90,0.0,-999.0,71,0.00,,,0.00,Wunderground v.1.15,2013-09-05 17:40:00,
2013-09-05 07:45:00,76.0,61.6,30.11,East,90,0.0,-999.0,61,0.00,,,0.00,Wunderground v.1.15,2013-09-05 17:45:00,
2013-09-05 07:50:00,76.0,61.6,30.11,East,90,0.0,-999.0,61,0.00,,,0.00,Wunderground v.1.15,2013-09-05 17:50:00,
2013-09-05 07:55:00,76.0,61.6,30.11,East,90,0.0,-999.0,61,0.00,,,0.00,Wunderground v.1.15,2013-09-05 17:55:00,
2013-09-05 08:00:00,76.0,61.6,30.11,East,90,0.0,-999.0,61,0.00,,,0.00,Wunderground v.1.15,2013-09-05 18:00:00,
2013-09-05 08:05:00,76.0,61.6,30.11,East,90,0.0,-999.0,61,0.00,,,0.00,Wunderground v.1.15,2013-09-05 18:05:00,
2013-09-05 08:10:00,76.0,61.6,30.11,East,90,0.0,-999.0,61,0.00,,,0.00,Wunderground v.1.15,2013-09-05 18:10:00,
2013-09-05 08:15:00,80.9,64.2,30.11,East,90,0.0,-999.0,57,0.00,,,0.00,Wunderground v.1.15,2013-09-05 18:15:00,
2013-09-05 08:20:00,80.9,64.2,30.11,East,90,0.0,-999.0,57,0.00,,,0.00,Wunderground v.1.15,2013-09-05 18:20:00,
2013-09-05 08:25:00,80.9,64.2,30.11,East,90,0.0,-999.0,57,0.00,,,0.00,Wunderground v.1.15,2013-09-05 18:25:00,
2013-09-05 08:30:00,80.9,64.2,30.11,East,90,0.0,-999.0,57,0.00,,,0.00,Wunderground v.1.15,2013-09-05 18:30:00,
2013-09-05 08:35:00,80.9,64.2,30.11,East,90,0.0,-999.0,57,0.00,,,0.00,Wunderground v.1.15,2013-09-05 18:35:00,
2013-09-05 08:40:00,80.9,64.2,30.11,East,90,0.0,-999.0,57,0.00,,,0.00,Wunderground v.1.15,2013-09-05 18:40:00,
2013-09-05 08:45:00,82.2,66.0,30.11,East,90,1.0,-999.0,58,0.00,,,0.00,Wunderground v.1.15,2013-09-05 18:45:00,
2013-09-05 08:50:00,82.2,66.0,30.11,East,90,1.0,-999.0,58,0.00,,,0.00,Wunderground v.1.15,2013-09-05 18:50:00,
2013-09-05 08:55:00,82.2,66.0,30.11,East,90,1.0,-999.0,58,0.00,,,0.00,Wunderground v.1.15,2013-09-05 18:55:00,
2013-09-05 09:00:00,82.2,66.0,30.11,East,90,1.0,-999.0,58,0.00,,,0.00,Wunderground v.1.15,2013-09-05 19:00:00,
2013-09-05 09:05:00,82.2,66.0,30.11,East,90,1.0,-999.0,58,0.00,,,0.00,Wunderground v.1.15,2013-09-05 19:05:00,
2013-09-05 09:10:00,82.2,66.0,30.11,East,90,1.0,-999.0,58,0.00,,,0.00,Wunderground v.1.15,2013-09-05 19:10:00,
2013-09-05 09:15:00,82.2,64.9,30.11,East,90,2.0,-999.0,56,0.00,,,0.00,Wunderground v.1.15,2013-09-05 19:15:00,
2013-09-05 09:20:00,82.2,64.9,30.11,East,90,2.0,-999.0,56,0.00,,,0.00,Wunderground v.1.15,2013-09-05 19:20:00,
2013-09-05 09:25:00,82.2,64.9,30.11,East,90,2.0,-999.0,56,0.00,,,0.00,Wunderground v.1.15,2013-09-05 19:25:00,
2013-09-05 09:30:00,82.2,64.9,30.11,East,90,2.0,-999.0,56,0.00,,,0.00,Wunderground v.1.15,2013-09-05 19:30:00,
2013-09-05 09:35:00,82.2,64.9,30.11,East,90,2.0,-999.0,56,0.00,,,0.00,Wunderground v.1.15,2013-09-05 19:35:00,
2013-09-05 09:40:00,82.2,64.9,30.11,East,90,2.0,-999.0,56,0.00,,,0.00,Wunderground v.1.15,2013-09-05 19:40:00,
2013-09-05 09:45:00,83.9,68.0,30.10,NNW,338,3.0,-999.0,59,0.00,,,0.00,Wunderground v.1.15,2013-09-05 19:45:00,
2013-09-05 09:50:00,83.9,68.0,30.10,NNW,338,3.0,-999.0,59,0.00,,,0.00,Wunderground v.1.15,2013-09-05 19:50:00,
2013-09-05 09:55:00,83.9,68.0,30.10,NNW,338,3.0,-999.0,59,0.00,,,0.00,Wunderground v.1.15,2013-09-05 19:55:00,
2013-09-05 10:00:00,83.9,68.0,30.10,NNW,338,3.0,-999.0,59,0.00,,,0.00,Wunderground v.1.15,2013-09-05 20:00:00,
2013-09-05 10:05:00,83.9,68.0,30.10,NNW,338,3.0,-999.0,59,0.00,,,0.00,Wunderground v.1.15,2013-09-05 20:05:00,
2013-09-05 10:10:00,83.9,68.0,30.10,NNW,338,3.0,-999.0,59,0.00,,,0.00,Wunderground v.1.15,2013-09-05 20:10:00,
2013-09-05 10:15:00,86.5,68.9,30.10,North,0,5.0,-999.0,56,0.00,,,0.00,Wunderground v.1.15,2013-09-05 20:15:00,
2013-09-05 10:20:00,86.5,68.9,30.10,North,0,5.0,-999.0,56,0.00,,,0.00,Wunderground v.1.15,2013-09-05 20:20:00,
2013-09-05 10:25:00,86.5,68.9,30.10,North,0,5.0,-999.0,56,0.00,,,0.00,Wunderground v.1.15,2013-09-05 20:25:00,
2013-09-05 10:30:00,86.5,68.9,30.10,North,0,5.0,-999.0,56,0.00,,,0.00,Wunderground v.1.15,2013-09-05 20:30:00,
2013-09-05 10:35:00,86.5,68.9,30.10,North,0,5.0,-999.0,56,0.00,,,0.00,Wunderground v.1.15,2013-09-05 20:35:00,
2013-09-05 10:40:00,86.5,68.9,30.10,North,0,5.0,-999.0,56,0.00,,,0.00,Wunderground v.1.15,2013-09-05 20:40:00,
2013-09-05 10:45:00,88.3,69.0,30.11,North,0,5.0,-999.0,53,0.00,,,0.00,Wunderground v.1.15,2013-09-05 20:45:00,
2013-09-05 10:50:00,88.3,69.0,30.11,North,0,5.0,-999.0,53,0.00,,,0.00,Wunderground v.1.15,2013-09-05 20:50:00,
2013-09-05 10:55:00,88.3,69.0,30.11,North,0,5.0,-999.0,53,0.00,,,0.00,Wunderground v.1.15,2013-09-05 20:55:00,
2013-09-05 11:00:00,88.3,69.0,30.11,North,0,5.0,-999.0,53,0.00,,,0.00,Wunderground v.1.15,2013-09-05 21:00:00,
2013-09-05 11:05:00,88.3,69.0,30.11,North,0,5.0,-999.0,53,0.00,,,0.00,Wunderground v.1.15,2013-09-05 21:05:00,
2013-09-05 11:10:00,88.3,69.0,30.11,North,0,5.0,-999.0,53,0.00,,,0.00,Wunderground v.1.15,2013-09-05 21:10:00,
2013-09-05 11:15:00,89.3,69.4,30.10,NNW,338,5.0,-999.0,52,0.00,,,0.00,Wunderground v.1.15,2013-09-05 21:15:00,
2013-09-05 11:20:00,89.3,69.4,30.10,NNW,338,5.0,-999.0,52,0.00,,,0.00,Wunderground v.1.15,2013-09-05 21:20:00,
2013-09-05 11:25:00,89.3,69.4,30.10,NNW,338,5.0,-999.0,52,0.00,,,0.00,Wunderground v.1.15,2013-09-05 21:25:00,
2013-09-05 11:30:00,89.3,69.4,30.10,NNW,338,5.0,-999.0,52,0.00,,,0.00,Wunderground v.1.15,2013-09-05 21:30:00,
2013-09-05 11:35:00,89.3,69.4,30.10,NNW,338,5.0,-999.0,52,0.00,,,0.00,Wunderground v.1.15,2013-09-05 21:35:00,
2013-09-05 11:40:00,89.3,69.4,30.10,NNW,338,5.0,-999.0,52,0.00,,,0.00,Wunderground v.1.15,2013-09-05 21:40:00,
2013-09-05 11:45:00,89.5,69.5,30.10,NNE,23,7.0,-999.0,52,0.00,,,0.00,Wunderground v.1.15,2013-09-05 21:45:00,
2013-09-05 11:50:00,89.5,69.5,30.10,NNE,23,7.0,-999.0,52,0.00,,,0.00,Wunderground v.1.15,2013-09-05 21:50:00,
2013-09-05 11:55:00,89.5,69.5,30.10,NNE,23,7.0,-999.0,52,0.00,,,0.00,Wunderground v.1.15,2013-09-05 21:55:00,
2013-09-05 12:00:00,89.5,69.5,30.10,NNE,23,7.0,-999.0,52,0.00,,,0.00,Wunderground v.1.15,2013-09-05 22:00:00,
2013-09-05 12:05:00,89.5,69.5,30.10,NNE,23,7.0,-999.0,52,0.00,,,0.00,Wunderground v.1.15,2013-09-05 22:05:00,
2013-09-05 12:10:00,89.5,69.5,30.10,NNE,23,7.0,-999.0,52,0.00,,,0.00,Wunderground v.1.15,2013-09-05 22:10:00,
2013-09-05 12:15:00,89.6,69.1,30.09,NNE,23,8.0,-999.0,51,0.00,,,0.00,Wunderground v.1.15,2013-09-05 22:15:00,
2013-09-05 12:20:00,89.6,69.1,30.09,NNE,23,8.0,-999.0,51,0.00,,,0.00,Wunderground v.1.15,2013-09-05 22:20:00,
2013-09-05 12:25:00,89.6,69.1,30.09,NNE,23,8.0,-999.0,51,0.00,,,0.00,Wunderground v.1.15,2013-09-05 22:25:00,
2013-09-05 12:30:00,89.6,69.1,30.09,NNE,23,8.0,-999.0,51,0.00,,,0.00,Wunderground v.1.15,2013-09-05 22:30:00,
2013-09-05 12:35:00,89.6,69.1,30.09,NNE,23,8.0,-999.0,51,0.00,,,0.00,Wunderground v.1.15,2013-09-05 22:35:00,
2013-09-05 12:40:00,89.6,69.1,30.09,NNE,23,8.0,-999.0,51,0.00,,,0.00,Wunderground v.1.15,2013-09-05 22:40:00,
2013-09-05 12:45:00,89.2,69.3,30.08,NE,45,10.0,-999.0,52,0.00,,,0.00,Wunderground v.1.15,2013-09-05 22:45:00,
2013-09-05 12:50:00,89.2,69.3,30.08,NE,45,10.0,-999.0,52,0.00,,,0.00,Wunderground v.1.15,2013-09-05 22:50:00,
2013-09-05 12:55:00,89.2,69.3,30.08,NE,45,10.0,-999.0,52,0.00,,,0.00,Wunderground v.1.15,2013-09-05 22:55:00,
2013-09-05 13:00:00,89.2,69.3,30.08,NE,45,10.0,-999.0,52,0.00,,,0.00,Wunderground v.1.15,2013-09-05 23:00:00,
2013-09-05 13:05:00,89.2,69.3,30.08,NE,45,10.0,-999.0,52,0.00,,,0.00,Wunderground v.1.15,2013-09-05 23:05:00,
2013-09-05 13:10:00,89.2,69.3,30.08,NE,45,10.0,-999.0,52,0.00,,,0.00,Wunderground v.1.15,2013-09-05 23:10:00,
2013-09-05 13:15:00,89.3,69.9,30.07,NE,45,10.0,-999.0,53,0.00,,,0.00,Wunderground v.1.15,2013-09-05 23:15:00,
2013-09-05 13:20:00,89.3,69.9,30.07,NE,45,10.0,-999.0,53,0.00,,,0.00,Wunderground v.1.15,2013-09-05 23:20:00,
2013-09-05 13:25:00,89.3,69.9,30.07,NE,45,10.0,-999.0,53,0.00,,,0.00,Wunderground v.1.15,2013-09-05 23:25:00,
2013-09-05 13:30:00,89.3,69.9,30.07,NE,45,10.0,-999.0,53,0.00,,,0.00,Wunderground v.1.15,2013-09-05 23:30:00,
2013-09-05 13:35:00,89.3,69.9,30.07,NE,45,10.0,-999.0,53,0.00,,,0.00,Wunderground v.1.15,2013-09-05 23:35:00,
2013-09-05 13:40:00,89.3,69.9,30.07,NE,45,10.0,-999.0,53,0.00,,,0.00,Wunderground v.1.15,2013-09-05 23:40:00,
2013-09-05 13:45:00,89.1,70.3,30.06,NE,45,9.0,-999.0,54,0.00,,,0.00,Wunderground v.1.15,2013-09-05 23:45:00,
2013-09-05 13:50:00,89.1,70.3,30.06,NE,45,9.0,-999.0,54,0.00,,,0.00,Wunderground v.1.15,2013-09-05 23:50:00,
2013-09-05 13:55:00,89.1,70.3,30.06,NE,45,9.0,-999.0,54,0.00,,,0.00,Wunderground v.1.15,2013-09-05 23:55:00,
2013-09-05 14:00:00,89.1,70.3,30.06,NE,45,9.0,-999.0,54,0.00,,,0.00,Wunderground v.1.15,2013-09-06 00:00:00,
2013-09-05 14:05:00,89.1,70.3,30.06,NE,45,9.0,-999.0,54,0.00,,,0.00,Wunderground v.1.15,2013-09-06 00:05:00,
2013-09-05 14:10:00,89.1,70.3,30.06,NE,45,9.0,-999.0,54,0.00,,,0.00,Wunderground v.1.15,2013-09-06 00:10:00,
2013-09-05 14:15:00,88.3,69.0,30.06,NE,45,8.0,-999.0,53,0.00,,,0.00,Wunderground v.1.15,2013-09-06 00:15:00,
2013-09-05 14:20:00,88.3,69.0,30.06,NE,45,8.0,-999.0,53,0.00,,,0.00,Wunderground v.1.15,2013-09-06 00:20:00,
2013-09-05 14:25:00,88.3,69.0,30.06,NE,45,8.0,-999.0,53,0.00,,,0.00,Wunderground v.1.15,2013-09-06 00:25:00,
2013-09-05 14:30:00,88.3,69.0,30.06,NE,45,8.0,-999.0,53,0.00,,,0.00,Wunderground v.1.15,2013-09-06 00:30:00,
2013-09-05 14:35:00,88.3,69.0,30.06,NE,45,8.0,-999.0,53,0.00,,,0.00,Wunderground v.1.15,2013-09-06 00:35:00,
2013-09-05 14:40:00,88.3,69.0,30.06,NE,45,8.0,-999.0,53,0.00,,,0.00,Wunderground v.1.15,2013-09-06 00:40:00,
2013-09-05 14:45:00,89.6,69.6,30.06,NE,45,8.0,-999.0,52,0.00,,,0.00,Wunderground v.1.15,2013-09-06 00:45:00,
2013-09-05 14:50:00,89.6,69.6,30.06,NE,45,8.0,-999.0,52,0.00,,,0.00,Wunderground v.1.15,2013-09-06 00:50:00,
2013-09-05 14:55:00,89.6,69.6,30.06,NE,45,8.0,-999.0,52,0.00,,,0.00,Wunderground v.1.15,2013-09-06 00:55:00,
2013-09-05 15:00:00,89.6,69.6,30.06,NE,45,8.0,-999.0,52,0.00,,,0.00,Wunderground v.1.15,2013-09-06 01:00:00,
2013-09-05 15:05:00,89.6,69.6,30.06,NE,45,8.0,-999.0,52,0.00,,,0.00,Wunderground v.1.15,2013-09-06 01:05:00,
2013-09-05 15:10:00,89.6,69.6,30.06,NE,45,8.0,-999.0,52,0.00,,,0.00,Wunderground v.1.15,2013-09-06 01:10:00,
2013-09-05 15:15:00,88.9,69.0,30.06,NE,45,6.0,-999.0,52,0.00,,,0.00,Wunderground v.1.15,2013-09-06 01:15:00,
2013-09-05 15:20:00,88.9,69.0,30.06,NE,45,6.0,-999.0,52,0.00,,,0.00,Wunderground v.1.15,2013-09-06 01:20:00,
2013-09-05 15:25:00,88.9,69.0,30.06,NE,45,6.0,-999.0,52,0.00,,,0.00,Wunderground v.1.15,2013-09-06 01:25:00,
2013-09-05 15:30:00,88.9,69.0,30.06,NE,45,6.0,-999.0,52,0.00,,,0.00,Wunderground v.1.15,2013-09-06 01:30:00,
2013-09-05 15:35:00,88.9,69.0,30.06,NE,45,6.0,-999.0,52,0.00,,,0.00,Wunderground v.1.15,2013-09-06 01:35:00,
2013-09-05 15:40:00,88.9,69.0,30.06,NE,45,6.0,-999.0,52,0.00,,,0.00,Wunderground v.1.15,2013-09-06 01:40:00,
2013-09-05 15:45:00,85.9,70.4,30.06,SE,135,2.0,-999.0,60,0.00,,,0.00,Wunderground v.1.15,2013-09-06 01:45:00,
2013-09-05 15:50:00,85.9,70.4,30.06,SE,135,2.0,-999.0,60,0.00,,,0.00,Wunderground v.1.15,2013-09-06 01:50:00,
2013-09-05 15:55:00,85.9,70.4,30.06,SE,135,2.0,-999.0,60,0.00,,,0.00,Wunderground v.1.15,2013-09-06 01:55:00,
2013-09-05 16:00:00,85.9,70.4,30.06,SE,135,2.0,-999.0,60,0.00,,,0.00,Wunderground v.1.15,2013-09-06 02:00:00,
2013-09-05 16:05:00,85.9,70.4,30.06,SE,135,2.0,-999.0,60,0.00,,,0.00,Wunderground v.1.15,2013-09-06 02:05:00,
2013-09-05 16:10:00,85.9,70.4,30.06,SE,135,2.0,-999.0,60,0.00,,,0.00,Wunderground v.1.15,2013-09-06 02:10:00,
2013-09-05 16:15:00,83.8,68.9,30.07,SE,135,1.0,-999.0,61,0.00,,,0.00,Wunderground v.1.15,2013-09-06 02:15:00,
2013-09-05 16:20:00,83.8,68.9,30.07,SE,135,1.0,-999.0,61,0.00,,,0.00,Wunderground v.1.15,2013-09-06 02:20:00,
2013-09-05 16:25:00,83.8,68.9,30.07,SE,135,1.0,-999.0,61,0.00,,,0.00,Wunderground v.1.15,2013-09-06 02:25:00,
2013-09-05 16:30:00,83.8,68.9,30.07,SE,135,1.0,-999.0,61,0.00,,,0.00,Wunderground v.1.15,2013-09-06 02:30:00,
2013-09-05 16:35:00,83.8,68.9,30.07,SE,135,1.0,-999.0,61,0.00,,,0.00,Wunderground v.1.15,2013-09-06 02:35:00,
2013-09-05 16:40:00,83.8,68.9,30.07,SE,135,1.0,-999.0,61,0.00,,,0.00,Wunderground v.1.15,2013-09-06 02:40:00,
2013-09-05 16:45:00,83.2,66.9,30.07,SE,135,2.0,-999.0,58,0.00,,,0.00,Wunderground v.1.15,2013-09-06 02:45:00,
2013-09-05 16:50:00,83.2,66.9,30.07,SE,135,2.0,-999.0,58,0.00,,,0.00,Wunderground v.1.15,2013-09-06 02:50:00,
2013-09-05 16:55:00,83.2,66.9,30.07,SE,135,2.0,-999.0,58,0.00,,,0.00,Wunderground v.1.15,2013-09-06 02:55:00,
2013-09-05 17:00:00,83.2,66.9,30.07,SE,135,2.0,-999.0,58,0.00,,,0.00,Wunderground v.1.15,2013-09-06 03:00:00,
2013-09-05 17:05:00,83.2,66.9,30.07,SE,135,2.0,-999.0,58,0.00,,,0.00,Wunderground v.1.15,2013-09-06 03:05:00,
2013-09-05 17:10:00,83.2,66.9,30.07,SE,135,2.0,-999.0,58,0.00,,,0.00,Wunderground v.1.15,2013-09-06 03:10:00,
2013-09-05 17:15:00,85.9,66.8,30.07,NE,45,5.0,-999.0,53,0.00,,,0.00,Wunderground v.1.15,2013-09-06 03:15:00,
2013-09-05 17:20:00,85.9,66.8,30.07,NE,45,5.0,-999.0,53,0.00,,,0.00,Wunderground v.1.15,2013-09-06 03:20:00,
2013-09-05 17:25:00,85.9,66.8,30.07,NE,45,5.0,-999.0,53,0.00,,,0.00,Wunderground v.1.15,2013-09-06 03:25:00,
2013-09-05 17:30:00,85.9,66.8,30.07,NE,45,5.0,-999.0,53,0.00,,,0.00,Wunderground v.1.15,2013-09-06 03:30:00,
2013-09-05 17:35:00,85.9,66.8,30.07,NE,45,5.0,-999.0,53,0.00,,,0.00,Wunderground v.1.15,2013-09-06 03:35:00,
2013-09-05 17:40:00,85.9,66.8,30.07,NE,45,5.0,-999.0,53,0.00,,,0.00,Wunderground v.1.15,2013-09-06 03:40:00,
2013-09-05 17:45:00,85.6,68.1,30.08,NE,45,6.0,-999.0,56,0.00,,,0.00,Wunderground v.1.15,2013-09-06 03:45:00,
2013-09-05 17:50:00,85.6,68.1,30.08,NE,45,6.0,-999.0,56,0.00,,,0.00,Wunderground v.1.15,2013-09-06 03:50:00,
2013-09-05 17:55:00,85.6,68.1,30.08,NE,45,6.0,-999.0,56,0.00,,,0.00,Wunderground v.1.15,2013-09-06 03:55:00,
2013-09-05 18:00:00,85.6,68.1,30.08,NE,45,6.0,-999.0,56,0.00,,,0.00,Wunderground v.1.15,2013-09-06 04:00:00,
2013-09-05 18:05:00,85.6,68.1,30.08,NE,45,6.0,-999.0,56,0.00,,,0.00,Wunderground v.1.15,2013-09-06 04:05:00,
2013-09-05 18:10:00,85.6,68.1,30.08,NE,45,6.0,-999.0,56,0.00,,,0.00,Wunderground v.1.15,2013-09-06 04:10:00,
2013-09-05 18:15:00,83.4,68.1,30.08,NE,45,4.0,-999.0,60,0.00,,,0.00,Wunderground v.1.15,2013-09-06 04:15:00,
2013-09-05 18:20:00,83.4,68.1,30.08,NE,45,4.0,-999.0,60,0.00,,,0.00,Wunderground v.1.15,2013-09-06 04:20:00,
2013-09-05 18:25:00,83.4,68.1,30.08,NE,45,4.0,-999.0,60,0.00,,,0.00,Wunderground v.1.15,2013-09-06 04:25:00,
2013-09-05 18:30:00,83.4,68.1,30.08,NE,45,4.0,-999.0,60,0.00,,,0.00,Wunderground v.1.15,2013-09-06 04:30:00,
2013-09-05 18:35:00,83.4,68.1,30.08,NE,45,4.0,-999.0,60,0.00,,,0.00,Wunderground v.1.15,2013-09-06 04:35:00,
2013-09-05 18:40:00,83.4,68.1,30.08,NE,45,4.0,-999.0,60,0.00,,,0.00,Wunderground v.1.15,2013-09-06 04:40:00,
2013-09-05 18:45:00,80.5,64.4,30.10,East,90,2.0,-999.0,58,0.00,,,0.00,Wunderground v.1.15,2013-09-06 04:45:00,
2013-09-05 18:50:00,80.5,64.4,30.10,East,90,2.0,-999.0,58,0.00,,,0.00,Wunderground v.1.15,2013-09-06 04:50:00,
2013-09-05 18:55:00,80.5,64.4,30.10,East,90,2.0,-999.0,58,0.00,,,0.00,Wunderground v.1.15,2013-09-06 04:55:00,
2013-09-05 19:00:00,80.5,64.4,30.10,East,90,2.0,-999.0,58,0.00,,,0.00,Wunderground v.1.15,2013-09-06 05:00:00,
2013-09-05 19:05:00,80.5,64.4,30.10,East,90,2.0,-999.0,58,0.00,,,0.00,Wunderground v.1.15,2013-09-06 05:05:00,
2013-09-05 19:10:00,80.5,64.4,30.10,East,90,2.0,-999.0,58,0.00,,,0.00,Wunderground v.1.15,2013-09-06 05:10:00,
2013-09-05 19:15:00,79.3,62.2,30.12,East,90,1.0,-999.0,56,0.00,,,0.00,Wunderground v.1.15,2013-09-06 05:15:00,
2013-09-05 19:20:00,79.3,62.2,30.12,East,90,1.0,-999.0,56,0.00,,,0.00,Wunderground v.1.15,2013-09-06 05:20:00,
2013-09-05 19:25:00,79.3,62.2,30.12,East,90,1.0,-999.0,56,0.00,,,0.00,Wunderground v.1.15,2013-09-06 05:25:00,
2013-09-05 19:30:00,79.3,62.2,30.12,East,90,1.0,-999.0,56,0.00,,,0.00,Wunderground v.1.15,2013-09-06 05:30:00,
2013-09-05 19:35:00,79.3,62.2,30.12,East,90,1.0,-999.0,56,0.00,,,0.00,Wunderground v.1.15,2013-09-06 05:35:00,
2013-09-05 19:40:00,79.3,62.2,30.12,East,90,1.0,-999.0,56,0.00,,,0.00,Wunderground v.1.15,2013-09-06 05:40:00,
2013-09-05 19:45:00,78.4,64.3,30.13,East,90,2.0,-999.0,62,0.00,,,0.00,Wunderground v.1.15,2013-09-06 05:45:00,
2013-09-05 19:50:00,78.4,64.3,30.13,East,90,2.0,-999.0,62,0.00,,,0.00,Wunderground v.1.15,2013-09-06 05:50:00,
2013-09-05 19:55:00,78.4,64.3,30.13,East,90,2.0,-999.0,62,0.00,,,0.00,Wunderground v.1.15,2013-09-06 05:55:00,
2013-09-05 20:00:00,78.4,64.3,30.13,East,90,2.0,-999.0,62,0.00,,,0.00,Wunderground v.1.15,2013-09-06 06:00:00,
2013-09-05 20:05:00,78.4,64.3,30.13,East,90,2.0,-999.0,62,0.00,,,0.00,Wunderground v.1.15,2013-09-06 06:05:00,
2013-09-05 20:10:00,78.4,64.3,30.13,East,90,2.0,-999.0,62,0.00,,,0.00,Wunderground v.1.15,2013-09-06 06:10:00,
2013-09-05 20:15:00,77.5,65.7,30.14,East,90,2.0,-999.0,67,0.00,,,0.00,Wunderground v.1.15,2013-09-06 06:15:00,
2013-09-05 20:20:00,77.5,65.7,30.14,East,90,2.0,-999.0,67,0.00,,,0.00,Wunderground v.1.15,2013-09-06 06:20:00,
2013-09-05 20:25:00,77.5,65.7,30.14,East,90,2.0,-999.0,67,0.00,,,0.00,Wunderground v.1.15,2013-09-06 06:25:00,
2013-09-05 20:30:00,77.5,65.7,30.14,East,90,2.0,-999.0,67,0.00,,,0.00,Wunderground v.1.15,2013-09-06 06:30:00,
2013-09-05 20:35:00,77.5,65.7,30.14,East,90,2.0,-999.0,67,0.00,,,0.00,Wunderground v.1.15,2013-09-06 06:35:00,
2013-09-05 20:40:00,77.5,65.7,30.14,East,90,2.0,-999.0,67,0.00,,,0.00,Wunderground v.1.15,2013-09-06 06:40:00,
2013-09-05 20:45:00,76.2,62.2,30.15,East,90,2.0,-999.0,62,0.00,,,0.00,Wunderground v.1.15,2013-09-06 06:45:00,
2013-09-05 20:50:00,76.2,62.2,30.15,East,90,2.0,-999.0,62,0.00,,,0.00,Wunderground v.1.15,2013-09-06 06:50:00,
2013-09-05 20:55:00,76.2,62.2,30.15,East,90,2.0,-999.0,62,0.00,,,0.00,Wunderground v.1.15,2013-09-06 06:55:00,
2013-09-05 21:00:00,76.2,62.2,30.15,East,90,2.0,-999.0,62,0.00,,,0.00,Wunderground v.1.15,2013-09-06 07:00:00,
2013-09-05 21:05:00,76.2,62.2,30.15,East,90,2.0,-999.0,62,0.00,,,0.00,Wunderground v.1.15,2013-09-06 07:05:00,
2013-09-05 21:10:00,76.2,62.2,30.15,East,90,2.0,-999.0,62,0.00,,,0.00,Wunderground v.1.15,2013-09-06 07:10:00,
2013-09-05 21:15:00,75.1,62.5,30.16,ENE,68,1.0,-999.0,65,0.00,,,0.00,Wunderground v.1.15,2013-09-06 07:15:00,
2013-09-05 21:20:00,75.1,62.5,30.16,ENE,68,1.0,-999.0,65,0.00,,,0.00,Wunderground v.1.15,2013-09-06 07:20:00,
2013-09-05 21:25:00,75.1,62.5,30.16,ENE,68,1.0,-999.0,65,0.00,,,0.00,Wunderground v.1.15,2013-09-06 07:25:00,
2013-09-05 21:30:00,75.1,62.5,30.16,ENE,68,1.0,-999.0,65,0.00,,,0.00,Wunderground v.1.15,2013-09-06 07:30:00,
2013-09-05 21:35:00,75.1,62.5,30.16,ENE,68,1.0,-999.0,65,0.00,,,0.00,Wunderground v.1.15,2013-09-06 07:35:00,
2013-09-05 21:40:00,75.1,62.5,30.16,ENE,68,1.0,-999.0,65,0.00,,,0.00,Wunderground v.1.15,2013-09-06 07:40:00,
2013-09-05 21:45:00,74.8,63.5,30.16,ENE,68,0.0,-999.0,68,0.00,,,0.00,Wunderground v.1.15,2013-09-06 07:45:00,
2013-09-05 21:50:00,74.8,63.5,30.16,ENE,68,0.0,-999.0,68,0.00,,,0.00,Wunderground v.1.15,2013-09-06 07:50:00,
2013-09-05 21:55:00,74.8,63.5,30.16,ENE,68,0.0,-999.0,68,0.00,,,0.00,Wunderground v.1.15,2013-09-06 07:55:00,
2013-09-05 22:00:00,74.8,63.5,30.16,ENE,68,0.0,-999.0,68,0.00,,,0.00,Wunderground v.1.15,2013-09-06 08:00:00,
2013-09-05 22:05:00,74.8,63.5,30.16,ENE,68,0.0,-999.0,68,0.00,,,0.00,Wunderground v.1.15,2013-09-06 08:05:00,
2013-09-05 22:08:00,74.8,63.5,30.16,ENE,68,0.0,-999.0,68,0.00,,,0.00,Wunderground v.1.15,2013-09-06 08:08:00,
2013-09-05 22:10:00,74.8,63.5,30.16,ENE,68,0.0,-999.0,68,0.00,,,0.00,Wunderground v.1.15,2013-09-06 08:10:00,
2013-09-05 22:15:00,74.5,63.7,30.16,East,90,1.0,-999.0,69,0.00,,,0.00,Wunderground v.1.15,2013-09-06 08:15:00,
2013-09-05 22:20:00,74.5,63.7,30.16,East,90,1.0,-999.0,69,0.00,,,0.00,Wunderground v.1.15,2013-09-06 08:20:00,
2013-09-05 22:25:00,74.5,63.7,30.16,East,90,1.0,-999.0,69,0.00,,,0.00,Wunderground v.1.15,2013-09-06 08:25:00,
2013-09-05 22:30:00,74.5,63.7,30.16,East,90,1.0,-999.0,69,0.00,,,0.00,Wunderground v.1.15,2013-09-06 08:30:00,
2013-09-05 22:35:00,74.5,63.7,30.16,East,90,1.0,-999.0,69,0.00,,,0.00,Wunderground v.1.15,2013-09-06 08:35:00,
2013-09-05 22:40:00,74.5,63.7,30.16,East,90,1.0,-999.0,69,0.00,,,0.00,Wunderground v.1.15,2013-09-06 08:40:00,
2013-09-05 22:45:00,74.7,64.7,30.16,ENE,68,1.0,-999.0,71,0.00,,,0.00,Wunderground v.1.15,2013-09-06 08:45:00,
2013-09-05 22:50:00,74.7,64.7,30.16,ENE,68,1.0,-999.0,71,0.00,,,0.00,Wunderground v.1.15,2013-09-06 08:50:00,
2013-09-05 22:55:00,74.7,64.7,30.16,ENE,68,1.0,-999.0,71,0.00,,,0.00,Wunderground v.1.15,2013-09-06 08:55:00,
2013-09-05 23:00:00,74.7,64.7,30.16,ENE,68,1.0,-999.0,71,0.00,,,0.00,Wunderground v.1.15,2013-09-06 09:00:00,
2013-09-05 23:05:00,74.7,64.7,30.16,ENE,68,1.0,-999.0,71,0.00,,,0.00,Wunderground v.1.15,2013-09-06 09:05:00,
2013-09-05 23:10:00,74.7,64.7,30.16,ENE,68,1.0,-999.0,71,0.00,,,0.00,Wunderground v.1.15,2013-09-06 09:10:00,
2013-09-05 23:15:00,73.8,64.6,30.15,ENE,68,0.0,-999.0,73,0.00,,,0.00,Wunderground v.1.15,2013-09-06 09:15:00,
2013-09-05 23:20:00,73.8,64.6,30.15,ENE,68,0.0,-999.0,73,0.00,,,0.00,Wunderground v.1.15,2013-09-06 09:20:00,
2013-09-05 23:25:00,73.8,64.6,30.15,ENE,68,0.0,-999.0,73,0.00,,,0.00,Wunderground v.1.15,2013-09-06 09:25:00,
2013-09-05 23:30:00,73.8,64.6,30.15,ENE,68,0.0,-999.0,73,0.00,,,0.00,Wunderground v.1.15,2013-09-06 09:30:00,
2013-09-05 23:35:00,73.8,64.6,30.15,ENE,68,0.0,-999.0,73,0.00,,,0.00,Wunderground v.1.15,2013-09-06 09:35:00,
2013-09-05 23:40:00,73.8,64.6,30.15,ENE,68,0.0,-999.0,73,0.00,,,0.00,Wunderground v.1.15,2013-09-06 09:40:00,
2013-09-05 23:45:00,73.7,64.5,30.14,ENE,68,1.0,-999.0,73,0.00,,,0.00,Wunderground v.1.15,2013-09-06 09:45:00,
2013-09-05 23:50:00,73.7,64.5,30.14,ENE,68,1.0,-999.0,73,0.00,,,0.00,Wunderground v.1.15,2013-09-06 09:50:00,
2013-09-05 23:55:00,73.7,64.5,30.14,ENE,68,1.0,-999.0,73,0.00,,,0.00,Wunderground v.1.15,2013-09-06 09:55:00,